Volver al catálogo

STARLINK-35004

ActivoComunicacionesVLEO
NORAD 65428·PAYLOAD·🇺🇸 United States

Lanzado Aug 31, 2025 desde Cape Canaveral Space Force Station

Loading…

Próximos Pases (próximas 24 horas)

TLE

ActualizadoSource: CelesTrak SupGP

Época: Sep 14, 2026, 23:11 UTC

1 65428C 25192AA  26257.96645833  .00039260  00000+0  11603-2 0  2579
2 65428  53.1593  71.4583 0001217  81.5017  59.1925 15.34362652    13

Sigue STARLINK-35004 en tiempo real con AllMySat

Download on the App Store